Location: Newark
(3.0500°N, 36.0167°E)
Time: 09:06:49
(UTC+00:00)

Transit 4A - Pass Details

Date: 25 August 2019
Orbit: 867 x 978 km, 66.8° (Epoch: 21 October)

Event Time Altitude Azimuth Distance (km) Brightness Sun altitude
Exits shadow 01:47:02 72° 281° (W) 924 7.6 -26.6°
Maximum altitude 01:47:21 75° 251° (WSW) 914 7.6 -26.5°
Drops below altitude 10° 01:53:09 10° 166° (SSE) 2,516 10.2 -25.1°
Sets 01:55:37 0° 164° (SSE) 3,449 10.9 -24.5°
